BEIDOU-3 M20 (44865 NORAD) Tracking and Keplerian Element Data

This shows tracking and keplerian element data for the satellite.

Feedback or suggestion? Click here.




ElementValue
Catalog44865
NameBEIDOU-3 M20
Epoch Orbit54
Epoch Day15.03902523
Epoch Year2020
RAAN141.4078
Inclination55.0263
Eccentricity0.0101954
Argument of Perigee179.6912
Mean Anonmoly258.5767
Mean Motion1.83349233
Decay Rate4.1E-07
L11 44865U 19090B 20015.03902523 .00000041 00000-0 10000-3 0 9997
L22 44865 55.0263 141.4078 0101954 179.6912 258.5767 1.83349233 545

Live tracking and technical data element details for BEIDOU-3 M20 (NORAD 44865). BEIDOU-3 M20 can be tracked NOW for your location showing map with azimuth and elevation plus other details from your city location.

Track the satellite on the map from your city or location and see movement details for azimuth, elevation, latitude, longitude, range, height, and movement on the map or in text.







IsCatalogInMostPopularTable: catalog: 44865, numindb: 7
Update: records affected: 1



GetName: 44865 BEIDOU-3 M20

Hit Count: updated at: Mon, 20 Jan 2020 04:24:21 GMT